Flugplatz Hagen Hof-Wahl (UL)

Hier findest Du alle Informationen zum Flugplatz Hagen Hof-Wahl (UL).

Informationen für Piloten zum Flugplatz Hagen Hof-Wahl

Hier findest Du alle relevanten Informationen, die Du als Pilot benötigst, um Hagen Hof-Wahl anzufliegen.

Flugplatz: Hagen Hof-Wahl ICAO-Code: UL Flugplatz
Frequenz Turm: 122.725 Mhz GAFOR Gebiet: -
Frequenz Ground: 122.725 Mhz Mogas: nein
Platzrunde: S 1400 ft Landegebühr: -
Platzhöhe: Sunrise: 04:06 Uhr UTC
Pisten: 09/27 - 421 m x 15 m, GRAS Sunset: 19:05 Uhr UTC

Mitglieder, die in Hagen Hof-Wahl fliegen

Flugwetter am Flugplatz Hagen Hof-Wahl

Die METAR Information stammen aus EDLW (26.76 km entfernt).

METAR Code:
2020/08/01 10:50
EDLW 011050Z 21006KT 9999 FEW045 24/17 Q1015

Flugschulen am Flugplatz Hagen Hof-Wahl

Am Flugplatz Hagen Hof-Wahl gibt es leider keine Flugschule.

Benachbarte Flugplätze und Flugschulen

Es gibt 21 weitere Flugplätze in einem Umkreis von 50 km um den Flugplatz Hagen Hof-Wahl.

Jetzt anmelden

Passwort vergessen

Umfrage Archiv

Wären Rettungsgeräte keine Pflicht mehr, würdet Ihr Euer UL trotzdem mit einem ausstatten?

Ja
83.1 %
Nein
16.9 %
Stimmen: 254 | Diskussion
Anzeige: Roland Aircraft
Statistik Alle Mitglieder

Aktuell sind 47 Besucher online, davon 3 Mitglieder und 44 Gäste.


Mitglieder online:
Steffan Fly & more  Maraio  francop 

Anzeige: VFR Sprechfunk Simulator


Anzeige: Pocket FMS